リニア彗星

354P/LINEAR (2009)

English version
Home page
Updated on September 2, 2017

---------------------------------------------------------------------

・ プロフィール

符号 354P/2010 A2
発見日 2010年1月6日
発見光度 19.9等
発見者 Lincoln Laboratory Near-Earth Asteroid Research project

・ 写真集

・ 軌道要素

Epoch 2009 Nov. 25.0 TT = JDT 2455160.5
T 2009 Dec. 4.20596 TT                                  MPCW
q   2.0052214            (2000.0)            P               Q
n   0.28439929     Peri.  133.03439     -0.05993133     -0.99648600
a   2.2900786      Node   320.28883     +0.88714315     -0.02630012
e   0.1243875      Incl.    5.25468     +0.45758635     -0.07952327
P   3.47
From 135 observations 2010 Jan. 6-2017 Jan. 28, mean residual 0".3.

・ 光度変化

        m1 = 2.5 + 5 logΔ + 50 log r

        核光度:
        H = 21.3  G = 0.15

---------------------------------------------------------------------

軌道要素はM.P.E.C. 2017-M38に掲載されたものです。
光度グラフはComet for Windowsで作成したものです。

---------------------------------------------------------------------

Copyright(C) Seiichi Yoshida (comet@aerith.net). All rights reserved.